Weather History for KGRF - October, 2012

Change the Weather History Date:

Monday, October 29, 2012

  Actual Average (KOLM) Record (KOLM)
Temperature  
Mean Temperature 56 °F 47 °F  
Max Temperature 62 °F 55 °F 68 °F (1962)
Min Temperature 51 °F 39 °F 21 °F (1971)
Degree Days  
Heating Degree Days 8 18  
Month to date heating degree days 418  
Since 1 July heating degree days 758  
Cooling Degree Days 0 0  
Month to date cooling degree days 0  
Year to date cooling degree days 106  
Growing Degree Days 6 (Base 50)    
Moisture  
Dew Point 53 °F    
Average Humidity 91    
Maximum Humidity 100    
Minimum Humidity 68    
Precipitation  
Precipitation 0.52 in 0.21 in 1.64 in (1955)
Month to date precipitation 4.15  
Year to date precipitation 33.46  
Sea Level Pressure  
Sea Level Pressure 29.88 in    
Wind  
Wind Speed 7 mph (South)    
Max Wind Speed 18 mph    
Max Gust Speed 25 mph    
Visibility 8 miles    
Events Rain    
T = Trace of Precipitation, MM = Missing Value Source: NWS Daily Summary

Daily Weather History Graph

Daily Weather History Graph

Search for Another Location

Airport or City:

Trip Planner

Search our weather history database for the weather conditions in past years. The results will help you decide how hot, cold, wet, or windy it might be!

Date:

Astronomy

Oct. 29, 2012 Rise Set
Actual Time 7:49 AM PDT 5:57 PM PDT
Civil Twilight 7:17 AM PDT 6:29 PM PDT
Nautical Twilight 6:42 AM PDT 7:05 PM PDT
Astronomical Twilight 6:06 AM PDT 7:40 PM PDT
Moon 5:49 PM PDT (10/29) 7:47 AM PDT (10/29)
Length of Visible Light 11h 11m
Length of Day
10h 08m
Full, 100% of the Moon is Illuminated
Oct 29
Full
Oct 29
Full
Nov 6
Last Quarter
Nov 13
New
Nov 20
First Quarter

Hourly Weather History & Observations

Time (PDT) Temp. Dew Point Humidity Pressure Visibility Wind Dir Wind Speed Gust Speed Precip Events Conditions
12:08 AM 51.8 °F 51.8 °F 100% 29.76 in 4.0 mi ESE 3.5 mph - N/A Rain Light Rain
12:34 AM 51.8 °F 51.8 °F 100% 29.76 in 6.0 mi SE 4.6 mph - N/A Rain Light Rain
12:58 AM 51.4 °F 51.3 °F 99% 29.77 in 7.0 mi South 1.2 mph - 0.07 in   Light Drizzle
1:06 AM 51.8 °F 51.8 °F 100% 29.76 in 4.0 mi NW 4.6 mph - N/A Rain Rain
1:11 AM 51.8 °F 51.8 °F 100% 29.77 in 4.0 mi WNW 6.9 mph - N/A Rain Rain
1:16 AM 51.8 °F 51.8 °F 100% 29.77 in 2.5 mi NW 6.9 mph - N/A Rain Heavy Rain
1:21 AM 51.8 °F 51.8 °F 100% 29.78 in 1.8 mi WNW 5.8 mph - N/A Rain Heavy Rain
1:30 AM 51.8 °F 51.8 °F 100% 29.77 in 1.5 mi NNE 2.3 mph - N/A Rain Rain
1:50 AM 51.8 °F 51.8 °F 100% 29.76 in 3.0 mi ENE 1.2 mph - N/A Rain Light Rain
1:55 AM 51.8 °F 51.8 °F 100% 29.76 in 2.5 mi Variable 1.2 mph - N/A Rain Heavy Rain
1:58 AM 52.0 °F 51.8 °F 99% 29.77 in 2.5 mi Calm Calm - 0.32 in Rain Light Rain
2:15 AM 51.8 °F 51.8 °F 100% 29.76 in 4.0 mi ESE 4.6 mph - N/A Rain Light Rain
2:20 AM 51.8 °F 51.8 °F 100% 29.76 in 4.0 mi ESE 2.3 mph - N/A   Light Drizzle
2:40 AM 51.8 °F 51.8 °F 100% 29.76 in 3.0 mi SE 4.6 mph - N/A Rain Light Rain
2:58 AM 52.5 °F 52.3 °F 99% 29.77 in 6.0 mi SSE 6.9 mph - 0.12 in Rain Light Rain
3:03 AM 53.6 °F 51.8 °F 94% 29.76 in 10.0 mi SE 9.2 mph - N/A   Overcast
3:08 AM 53.6 °F 53.6 °F 100% 29.75 in 10.0 mi SE 10.4 mph - N/A   Overcast
3:58 AM 58.1 °F 57.9 °F 99% 29.76 in 10.0 mi South 15.0 mph - 0.01 in   Overcast
4:58 AM 59.4 °F 57.6 °F 94% 29.76 in 10.0 mi South 15.0 mph - N/A   Overcast
5:44 AM 59.0 °F 57.2 °F 94% 29.77 in 10.0 mi South 12.7 mph - N/A   Light Drizzle
5:52 AM 59.0 °F 57.2 °F 94% 29.77 in 10.0 mi SSE 17.3 mph - N/A   Overcast
5:58 AM 59.5 °F 57.0 °F 91% 29.78 in 10.0 mi South 18.4 mph - 0.00 in   Overcast
6:13 AM 59.0 °F 57.2 °F 94% 29.77 in 10.0 mi SSE 17.3 mph - N/A   Overcast
6:23 AM 59.0 °F 57.2 °F 94% 29.78 in 10.0 mi SSE 16.1 mph 25.3 mph N/A   Overcast
6:58 AM 59.2 °F 56.8 °F 92% 29.80 in 10.0 mi SSE 13.8 mph - N/A   Overcast
7:58 AM 59.5 °F 55.8 °F 87% 29.83 in 10.0 mi South 12.7 mph 23.0 mph N/A   Overcast
8:53 AM 59.0 °F 55.4 °F 88% 29.86 in 10.0 mi South 11.5 mph 21.9 mph N/A   Overcast
8:58 AM 59.2 °F 55.0 °F 86% 29.87 in 10.0 mi South 15.0 mph 21.9 mph N/A   Overcast
9:03 AM 59.0 °F 55.4 °F 88% 29.87 in 10.0 mi South 12.7 mph 20.7 mph N/A   Overcast
9:08 AM 59.0 °F 55.4 °F 88% 29.87 in 10.0 mi South 15.0 mph 21.9 mph N/A   Overcast
9:13 AM 59.0 °F 55.4 °F 88% 29.87 in 10.0 mi South 11.5 mph 21.9 mph N/A   Overcast
9:58 AM 60.3 °F 54.0 °F 80% 29.91 in 10.0 mi South 13.8 mph 20.7 mph N/A   Overcast
10:58 AM 60.1 °F 53.1 °F 78% 29.95 in 10.0 mi SW 12.7 mph 19.6 mph N/A   Overcast
11:33 AM 59.0 °F 53.6 °F 82% 29.95 in 10.0 mi SW 15.0 mph - N/A   Mostly Cloudy
11:58 AM 59.9 °F 53.2 °F 79% 29.97 in 10.0 mi SW 12.7 mph - N/A   Overcast
12:58 PM 61.3 °F 51.4 °F 70% 29.99 in 10.0 mi SSW 9.2 mph 20.7 mph N/A   Mostly Cloudy
1:28 PM 62.6 °F 51.8 °F 68% 29.98 in 10.0 mi SW 16.1 mph 19.6 mph N/A   Mostly Cloudy
1:58 PM 62.1 °F 51.4 °F 68% 30.00 in 10.0 mi SW 10.4 mph 20.7 mph N/A   Mostly Cloudy
2:58 PM 61.0 °F 52.2 °F 73% 30.01 in 10.0 mi SSW 10.4 mph - N/A   Mostly Cloudy
3:55 PM 60.8 °F 52.3 °F 74% 30.02 in 10.0 mi SSW 9.2 mph - N/A   Mostly Cloudy
4:58 PM 60.1 °F 52.2 °F 75% 30.03 in 10.0 mi SSW 5.8 mph - N/A   Overcast
5:38 PM 59.0 °F 51.8 °F 77% 30.02 in 10.0 mi SSW 3.5 mph - N/A   Overcast
5:43 PM 59.0 °F 51.8 °F 77% 30.01 in 10.0 mi SSW 4.6 mph - N/A   Overcast
5:58 PM 58.1 °F 52.5 °F 82% 30.02 in 10.0 mi South 5.8 mph - N/A   Mostly Cloudy
6:48 PM 57.2 °F 51.8 °F 82% 30.02 in 10.0 mi SSW 4.6 mph - N/A   Mostly Cloudy
6:53 PM 57.2 °F 51.8 °F 82% 30.02 in 10.0 mi SSW 5.8 mph - N/A   Mostly Cloudy
6:58 PM 56.5 °F 52.5 °F 87% 30.03 in 10.0 mi Variable 5.8 mph - N/A   Mostly Cloudy
7:58 PM 55.6 °F 52.2 °F 88% 30.04 in 10.0 mi SSE 3.5 mph - N/A   Mostly Cloudy
8:03 PM 55.4 °F 51.8 °F 88% 30.02 in 10.0 mi South 3.5 mph - N/A   Mostly Cloudy
8:33 PM 55.4 °F 53.6 °F 94% 30.00 in 10.0 mi SSE 4.6 mph - N/A   Mostly Cloudy
8:58 PM 54.5 °F 52.5 °F 93% 30.00 in 10.0 mi SE 5.8 mph - N/A   Partly Cloudy
9:58 PM 51.4 °F 50.9 °F 98% 29.99 in 10.0 mi SE 2.3 mph - N/A   Partly Cloudy
10:58 PM 52.0 °F 51.8 °F 99% 29.99 in 10.0 mi North 2.3 mph - N/A   Mostly Cloudy
11:23 PM 51.8 °F 51.8 °F 100% 29.98 in 10.0 mi SE 2.3 mph - N/A   Overcast
11:28 PM 51.8 °F 51.8 °F 100% 29.98 in 10.0 mi Calm Calm - N/A   Overcast
11:33 PM 51.8 °F 51.8 °F 100% 29.98 in 10.0 mi Calm Calm - N/A   Overcast
11:58 PM 51.8 °F 51.6 °F 99% 29.99 in 10.0 mi SE 1.2 mph - N/A   Overcast